{"data":{"norad_id":68457,"intl_designator":"2026-067AT","name":"TRANSPORTER-16 OBJECT AT","alt_names":[],"object_type":"PAYLOAD","status":"ACTIVE","operator":null,"country":"TBD","launch_date":"2026-03-30","launch_site_code":"AFWTR","launch_vehicle":null,"mission":null,"orbit_class":"UNKNOWN","rcs_meters":null,"size_class":null,"mass_kg":null,"dimensions":null,"purposes":[],"wikipedia_slug":null,"has_3d_model":false,"image_url":null,"decayed_at":null,"tle_current":{"epoch":"2026-09-19T16:31:15.727872Z","epoch_age_seconds":139860,"freshness":"FRESH","line1":"1 68457U 26067AT  26262.68837648  .00007384  00000+0  33596-3 0  9999","line2":"2 68457  97.4648 220.2115 0003054  60.5459 299.6081 15.21007271 26306","mean_motion":15.21007271,"eccentricity":0.0003054,"inclination_deg":97.4648,"raan_deg":220.2115,"arg_perigee_deg":60.5459,"mean_anomaly_deg":299.6081,"bstar":0.00033596,"rev_number":2630,"period_min":94.674103632211,"perigee_km":500.69961207014,"apogee_km":504.90248903142,"semimajor_km":6880.9380505508,"source":"CELESTRAK","updated_at":"2026-09-20T09:00:24.210432Z"}}}